Regional Weather Roundup
Issued by NWS Cleveland, OH

Home | Current Version | Previous Version | Text Only | Print | Product List | Glossary On
Versions: 1 2 3 4 5 6 7 8 9 10 11 12 13 14 15 16 17 18 19 20 21 22 23 24 25 26 27 28 29 30 31 32 33 34 35 36 37 38 39 40 41 42 43 44 45 46 47 48 49 50
000
ASUS41 KCLE 270512
RWRCLE
OHIO REGIONAL WEATHER ROUNDUP
NATIONAL WEATHER SERVICE WILMINGTON, OH
100 AM EDT SAT MAY 27 2017

NOTE: "FAIR" INDICATES FEW OR NO CLOUDS BELOW 12,000 FEET WITH NO
SIGNIFICANT WEATHER AND/OR OBSTRUCTIONS TO VISIBILITY.

OHZ001>008-015>018-024>027-034-035-043-044-270600-
   NORTHWEST OHIO

CITY           SKY/WX    TMP DP  RH WIND       PRES   REMARKS
DEFIANCE       RAIN      58  56  93 E6        29.87F
FINDLAY        RAIN      63  59  87 E5        29.87R FOG
TOLEDO EXPRESS RAIN      60  60 100 CALM      29.89R FOG
TOLEDO EXEC    LGT RAIN  61  59  93 CALM      29.90R FOG
LIMA           TSTM      61  60  97 E17       29.83F FOG
$$

OHZ009>014-019>023-028>033-038-089-270600-
   NORTHEAST OHIO

CITY           SKY/WX    TMP DP  RH WIND       PRES   REMARKS
CLE-HOPKINS    MOCLDY    59  54  83 SE3       29.92R
CLE-LAKEFRONT  FAIR      60  51  72 SE7       29.89S
CUY CO. ARPT   NOT AVBL
LORAIN-ELYRIA  MOCLDY    58  52  80 CALM      29.90S
ASHTABULA      CLOUDY    53  53 100 CALM      29.92S
AKRON-CANTON   MOCLDY    58  52  80 SE5       29.91S
WOOSTER        FAIR      57  55  93 SE3       29.91S
MANSFIELD      CLOUDY    61  56  83 E3        29.90R
YOUNGSTOWN     FAIR      50  48  93 SE5       29.92R
$$

OHZ042-051>053-060>062-070>072-077>081-270600-
  SOUTHWEST OHIO

CITY           SKY/WX    TMP DP  RH WIND       PRES   REMARKS
CINC-COVINGTON FAIR      68  62  81 S12       29.82F
CINC-LUNKEN    MOCLDY    69  64  84 S7        29.83F
HAMILTON       CLOUDY    74  64  71 CALM      29.84F
DAYTON         MOCLDY    65  63  93 S10       29.85S
WRIGHT-PAT AFB MOCLDY    65  65 100 SE6       29.84S
DAYTON GENERAL MOCLDY    64  60  87 E6        29.85S
WILMINGTON     FAIR      65  63  93 CALM      29.87F
$$

OHZ036-037-039>041-045>050-054>059-063>069-073>076-082>088-270600-
  CENTRAL AND SOUTHEAST OHIO

CITY           SKY/WX    TMP DP  RH WIND       PRES   REMARKS
COLUMBUS       TSTM      64  63  96 SW10      29.90F FOG
OSU AIRPORT    RAIN      64  64 100 S16       29.85F
BOLTON FIELD   HVY RAIN  63  62  97 SE10      29.87F
RICKENBACK AFB RAIN      62  62  99 CALM      29.91F
NEWARK         RAIN      62  59  90 S6        29.89F
MARION         LGT RAIN  62  58  86 E5        29.87R
LANCASTER      RAIN      65  61  87 N3        29.92F FOG
ZANESVILLE     TSTM      61  58  90 S3        29.91S
NEW PHILLY     FAIR      57  56  96 E3        29.92S
$$




USA.gov is the U.S. government's official web portal to all federal, state and local government web resources and services.